Climatologie pour Saint-Brevin les Pins
Jour • Résumé pour juillet 2, 2017 Système :  Métrique    Anglais   Mixte
« - 1 jour
+ 1 jour »
Jour Semaine Mois Année Personnalisé
  Maximum : Minimum : Moyenne :
Température sous abri : 22.0 °C 14.2 °C 17.8 °C
Point de rosée : 18.2 °C 12.5 °C 15.5 °C
Humidité : 96 % 75 % 87 %
Vitesse du vent : 20.9 km/h 0.0 km/h 8 km/h
Rafale : 29.0 km/h - -
Direction :- - WNW
Pression : 1025.6 hPa 1023.6 hPa -
Précipitations : 0.5 mm    
Historical Graphs
 
 
Tableau de données pour juillet 2, 2017
Heure Tempé Pt rosée Pression Vent Vitesse Rafale Humidité Taux pluie (/hr) Soleil
00:00 15.3 °C 13.2 °C 1023.9 hPa WNW 8.0 km/h 24.1 km/h 87 % 0.0 mm 0 W/m2
00:10 15.3 °C 13.1 °C 1023.9 hPa NW 4.8 km/h 19.3 km/h 87 % 0.0 mm 0 W/m2
00:20 15.2 °C 13.1 °C 1023.9 hPa NW 1.6 km/h 14.5 km/h 87 % 0.0 mm 0 W/m2
00:25 15.2 °C 13.2 °C 1023.9 hPa WNW 3.2 km/h 16.1 km/h 88 % 0.0 mm 0 W/m2
00:30 15.2 °C 13.2 °C 1023.9 hPa West 3.2 km/h 16.1 km/h 88 % 0.0 mm 0 W/m2
00:40 15.1 °C 13.1 °C 1023.9 hPa WNW 4.8 km/h 14.5 km/h 88 % 0.0 mm 0 W/m2
00:45 15.1 °C 13.1 °C 1023.9 hPa WNW 8.0 km/h 14.5 km/h 88 % 0.0 mm 0 W/m2
00:50 15.1 °C 13.1 °C 1023.9 hPa WNW 16.1 km/h 19.3 km/h 88 % 0.0 mm 0 W/m2
00:55 15.1 °C 13.1 °C 1023.9 hPa WNW 4.8 km/h 19.3 km/h 88 % 0.0 mm 0 W/m2
01:00 14.9 °C 12.9 °C 1023.9 hPa WNW 9.7 km/h 16.1 km/h 88 % 0.0 mm 0 W/m2
01:05 14.9 °C 12.9 °C 1024.3 hPa NW 8.0 km/h 16.1 km/h 88 % 0.0 mm 0 W/m2
01:10 14.9 °C 13.1 °C 1024.3 hPa NW 4.8 km/h 14.5 km/h 89 % 0.0 mm 0 W/m2
01:15 14.8 °C 12.8 °C 1024.3 hPa WNW 6.4 km/h 14.5 km/h 88 % 0.0 mm 0 W/m2
01:25 14.7 °C 12.9 °C 1024.3 hPa NW 9.7 km/h 16.1 km/h 89 % 0.0 mm 0 W/m2
01:30 14.8 °C 13.0 °C 1024.3 hPa WNW 8.0 km/h 16.1 km/h 89 % 0.0 mm 0 W/m2
01:35 14.7 °C 12.9 °C 1024.3 hPa West 4.8 km/h 17.7 km/h 89 % 0.0 mm 0 W/m2
01:40 14.7 °C 12.7 °C 1024.3 hPa WNW 4.8 km/h 17.7 km/h 88 % 0.0 mm 0 W/m2
01:45 14.6 °C 12.6 °C 1024.3 hPa NNW 6.4 km/h 14.5 km/h 88 % 0.0 mm 0 W/m2
01:50 14.6 °C 12.8 °C 1024.3 hPa Calm   14.5 km/h 89 % 0.0 mm 0 W/m2
01:55 14.4 °C 12.7 °C 1024.3 hPa NW 3.2 km/h 11.3 km/h 89 % 0.0 mm 0 W/m2
02:00 14.4 °C 12.6 °C 1024.3 hPa WNW 3.2 km/h 14.5 km/h 89 % 0.0 mm 0 W/m2
02:10 14.3 °C 12.5 °C 1024.3 hPa Calm   12.9 km/h 89 % 0.0 mm 0 W/m2
02:15 14.3 °C 12.7 °C 1024.3 hPa NW 3.2 km/h 17.7 km/h 90 % 0.0 mm 0 W/m2
02:20 14.2 °C 12.5 °C 1024.3 hPa WNW 4.8 km/h 17.7 km/h 90 % 0.0 mm 0 W/m2
02:25 14.2 °C 12.7 °C 1024.3 hPa NW 4.8 km/h 11.3 km/h 91 % 0.0 mm 0 W/m2
02:30 14.3 °C 12.8 °C 1024.3 hPa NW 11.3 km/h 11.3 km/h 91 % 0.0 mm 0 W/m2
02:35 14.4 °C 12.9 °C 1024.3 hPa WNW 8.0 km/h 11.3 km/h 91 % 0.0 mm 0 W/m2
02:40 14.7 °C 13.2 °C 1024.3 hPa WNW 8.0 km/h 14.5 km/h 91 % 0.0 mm 0 W/m2
02:45 14.8 °C 13.3 °C 1024.3 hPa Calm   14.5 km/h 91 % 0.0 mm 0 W/m2
02:55 14.9 °C 13.3 °C 1024.3 hPa WNW 11.3 km/h 14.5 km/h 90 % 0.0 mm 0 W/m2
03:00 15.0 °C 13.4 °C 1024.3 hPa WNW 1.6 km/h 14.5 km/h 90 % 0.0 mm 0 W/m2
03:05 15.0 °C 13.4 °C 1024.3 hPa NW 6.4 km/h 12.9 km/h 90 % 0.0 mm 0 W/m2
03:10 15.1 °C 13.5 °C 1024.3 hPa West 4.8 km/h 12.9 km/h 90 % 0.0 mm 0 W/m2
03:15 15.2 °C 13.4 °C 1024.3 hPa NW 8.0 km/h 12.9 km/h 89 % 0.0 mm 0 W/m2
03:20 15.3 °C 13.5 °C 1024.3 hPa NW 6.4 km/h 12.9 km/h 89 % 0.0 mm 0 W/m2
03:25 15.3 °C 13.5 °C 1024.3 hPa WNW 8.0 km/h 12.9 km/h 89 % 0.0 mm 0 W/m2
03:30 15.4 °C 13.6 °C 1024.3 hPa WNW 1.6 km/h 12.9 km/h 89 % 0.0 mm 0 W/m2
03:40 15.4 °C 13.6 °C 1024.3 hPa WNW 9.7 km/h 12.9 km/h 89 % 0.0 mm 0 W/m2
03:45 15.5 °C 13.7 °C 1023.9 hPa WNW 6.4 km/h 12.9 km/h 89 % 0.0 mm 0 W/m2
03:50 15.6 °C 13.7 °C 1023.9 hPa NW 3.2 km/h 12.9 km/h 89 % 0.0 mm 0 W/m2
03:55 15.6 °C 13.7 °C 1024.3 hPa NNW 6.4 km/h 11.3 km/h 89 % 0.0 mm 0 W/m2
04:00 15.7 °C 13.9 °C 1024.3 hPa NW 8.0 km/h 11.3 km/h 89 % 0.0 mm 0 W/m2
04:05 15.7 °C 13.9 °C 1024.3 hPa NW 3.2 km/h 12.9 km/h 89 % 0.0 mm 0 W/m2
04:10 15.8 °C 14.1 °C 1023.9 hPa NW 8.0 km/h 12.9 km/h 90 % 0.0 mm 0 W/m2
04:15 15.8 °C 14.0 °C 1023.9 hPa NW 8.0 km/h 16.1 km/h 89 % 0.0 mm 0 W/m2
04:25 15.8 °C 14.0 °C 1023.9 hPa WNW 8.0 km/h 11.3 km/h 89 % 0.0 mm 0 W/m2
04:30 15.8 °C 14.2 °C 1023.9 hPa WNW 6.4 km/h 12.9 km/h 90 % 0.0 mm 0 W/m2
04:35 15.9 °C 14.3 °C 1023.9 hPa West 4.8 km/h 14.5 km/h 90 % 0.0 mm 0 W/m2
04:40 15.9 °C 14.3 °C 1023.9 hPa NW 8.0 km/h 14.5 km/h 90 % 0.0 mm 0 W/m2
04:45 15.9 °C 14.3 °C 1023.9 hPa West 6.4 km/h 14.5 km/h 90 % 0.0 mm 0 W/m2
04:50 16.0 °C 14.4 °C 1023.9 hPa West 9.7 km/h 16.1 km/h 90 % 0.0 mm 0 W/m2
04:55 16.0 °C 14.4 °C 1023.9 hPa NW 8.0 km/h 16.1 km/h 90 % 0.0 mm 0 W/m2
05:00 16.1 °C 14.4 °C 1023.9 hPa WNW 4.8 km/h 14.5 km/h 90 % 0.0 mm 0 W/m2
05:10 16.1 °C 14.6 °C 1023.9 hPa West 3.2 km/h 12.9 km/h 91 % 0.0 mm 0 W/m2
05:20 16.1 °C 14.6 °C 1023.9 hPa WNW 3.2 km/h 16.1 km/h 91 % 0.0 mm 0 W/m2
05:25 15.8 °C 14.5 °C 1023.9 hPa West 8.0 km/h 16.1 km/h 92 % 0.0 mm 0 W/m2
05:30 15.7 °C 14.5 °C 1023.9 hPa Calm   11.3 km/h 93 % 0.0 mm 0 W/m2
05:35 15.6 °C 14.6 °C 1023.9 hPa West 3.2 km/h 11.3 km/h 94 % 0.0 mm 0 W/m2
05:40 15.6 °C 14.6 °C 1023.9 hPa WSW 8.0 km/h 9.7 km/h 94 % 0.0 mm 0 W/m2
05:45 15.6 °C 14.6 °C 1023.6 hPa WNW 8.0 km/h 12.9 km/h 94 % 0.0 mm 0 W/m2
06:00 15.7 °C 14.9 °C 1023.6 hPa WNW 6.4 km/h 14.5 km/h 95 % 0.0 mm 0 W/m2
06:05 15.8 °C 15.0 °C 1023.6 hPa WNW 6.4 km/h 12.9 km/h 95 % 0.0 mm 0 W/m2
06:10 15.8 °C 15.0 °C 1023.6 hPa NW 8.0 km/h 12.9 km/h 95 % 0.0 mm 0 W/m2
06:15 15.9 °C 15.1 °C 1023.9 hPa WNW 4.8 km/h 14.5 km/h 95 % 0.0 mm 0 W/m2
06:20 15.9 °C 15.3 °C 1023.9 hPa West 6.4 km/h 14.5 km/h 96 % 0.0 mm 0 W/m2
06:25 15.9 °C 15.3 °C 1023.9 hPa WSW 8.0 km/h 12.9 km/h 96 % 0.0 mm 0 W/m2
06:30 15.9 °C 15.3 °C 1023.9 hPa West 4.8 km/h 12.9 km/h 96 % 0.3 mm 0 W/m2
06:40 15.9 °C 15.3 °C 1023.9 hPa WNW 8.0 km/h 14.5 km/h 96 % 0.3 mm 0 W/m2
06:45 15.9 °C 15.3 °C 1023.9 hPa WNW 3.2 km/h 14.5 km/h 96 % 0.3 mm 0 W/m2
06:50 15.9 °C 15.3 °C 1023.9 hPa WNW 4.8 km/h 14.5 km/h 96 % 0.3 mm 0 W/m2
06:55 16.0 °C 15.4 °C 1023.9 hPa West 4.8 km/h 11.3 km/h 96 % 0.3 mm 7 W/m2
07:00 16.1 °C 15.4 °C 1023.9 hPa WNW 3.2 km/h 12.9 km/h 96 % 0.3 mm 9 W/m2
07:05 16.1 °C 15.5 °C 1023.9 hPa WNW 3.2 km/h 14.5 km/h 96 % 0.3 mm 11 W/m2
07:15 16.2 °C 15.5 °C 1023.9 hPa West 4.8 km/h 16.1 km/h 96 % 0.3 mm 12 W/m2
07:25 16.2 °C 15.6 °C 1023.9 hPa West 3.2 km/h 17.7 km/h 96 % 0.3 mm 23 W/m2
07:30 16.2 °C 15.6 °C 1023.9 hPa West 8.0 km/h 16.1 km/h 96 % 0.0 mm 21 W/m2
07:35 16.3 °C 15.6 °C 1023.9 hPa NW 6.4 km/h 16.1 km/h 96 % 0.0 mm 14 W/m2
07:40 16.3 °C 15.6 °C 1023.9 hPa West 9.7 km/h 19.3 km/h 96 % 0.0 mm 25 W/m2
07:45 16.3 °C 15.7 °C 1023.9 hPa WNW 3.2 km/h 19.3 km/h 96 % 0.0 mm 19 W/m2
07:50 16.3 °C 15.7 °C 1023.9 hPa WSW 8.0 km/h 17.7 km/h 96 % 0.0 mm 21 W/m2
07:55 16.3 °C 15.7 °C 1024.3 hPa West 14.5 km/h 17.7 km/h 96 % 0.0 mm 23 W/m2
08:00 16.3 °C 15.7 °C 1024.3 hPa West 3.2 km/h 19.3 km/h 96 % 0.0 mm 26 W/m2
08:10 16.3 °C 15.7 °C 1024.3 hPa WSW 6.4 km/h 19.3 km/h 96 % 0.0 mm 25 W/m2
08:15 16.4 °C 15.7 °C 1024.3 hPa WNW 3.2 km/h 19.3 km/h 96 % 0.0 mm 23 W/m2
08:20 16.3 °C 15.7 °C 1024.3 hPa NW 9.7 km/h 16.1 km/h 96 % 0.0 mm 33 W/m2
08:25 16.3 °C 15.7 °C 1024.3 hPa WNW 8.0 km/h 17.7 km/h 96 % 0.0 mm 30 W/m2
08:30 16.4 °C 15.7 °C 1024.6 hPa WNW 4.8 km/h 17.7 km/h 96 % 0.0 mm 30 W/m2
08:35 16.4 °C 15.7 °C 1024.6 hPa West 9.7 km/h 14.5 km/h 96 % 0.0 mm 32 W/m2
08:40 16.4 °C 15.7 °C 1024.6 hPa WNW 11.3 km/h 14.5 km/h 96 % 0.0 mm 30 W/m2
08:45 16.4 °C 15.7 °C 1024.6 hPa West 4.8 km/h 14.5 km/h 96 % 0.0 mm 30 W/m2
08:55 16.4 °C 15.7 °C 1024.6 hPa WNW 6.4 km/h 19.3 km/h 96 % 0.0 mm 32 W/m2
09:00 16.4 °C 15.7 °C 1024.6 hPa WNW 6.4 km/h 19.3 km/h 96 % 0.0 mm 39 W/m2
09:05 16.4 °C 15.7 °C 1024.6 hPa WNW 9.7 km/h 20.9 km/h 96 % 0.0 mm 44 W/m2
09:10 16.4 °C 15.7 °C 1024.6 hPa WNW 6.4 km/h 20.9 km/h 96 % 0.0 mm 40 W/m2
09:15 16.4 °C 15.7 °C 1024.6 hPa WSW 8.0 km/h 16.1 km/h 96 % 0.0 mm 54 W/m2
09:20 16.5 °C 15.9 °C 1024.6 hPa WNW 11.3 km/h 17.7 km/h 96 % 0.0 mm 81 W/m2
09:25 16.6 °C 16.0 °C 1024.6 hPa WNW 4.8 km/h 17.7 km/h 96 % 0.0 mm 100 W/m2
09:30 16.7 °C 16.1 °C 1024.6 hPa WNW 9.7 km/h 16.1 km/h 96 % 0.0 mm 125 W/m2
09:40 16.8 °C 16.0 °C 1024.6 hPa WNW 6.4 km/h 16.1 km/h 95 % 0.0 mm 135 W/m2
09:45 16.8 °C 16.0 °C 1024.6 hPa WNW 11.3 km/h 17.7 km/h 95 % 0.0 mm 118 W/m2
09:50 16.9 °C 16.1 °C 1024.6 hPa WNW 11.3 km/h 17.7 km/h 95 % 0.0 mm 102 W/m2
09:55 16.9 °C 16.0 °C 1024.6 hPa WNW 4.8 km/h 16.1 km/h 94 % 0.0 mm 130 W/m2
10:00 17.0 °C 16.0 °C 1024.6 hPa West 8.0 km/h 16.1 km/h 94 % 0.0 mm 121 W/m2
10:05 17.1 °C 16.1 °C 1024.6 hPa NW 1.6 km/h 14.5 km/h 94 % 0.0 mm 130 W/m2
10:10 17.1 °C 16.1 °C 1024.6 hPa West 4.8 km/h 14.5 km/h 94 % 0.0 mm 162 W/m2
10:15 17.2 °C 16.2 °C 1024.6 hPa NW 11.3 km/h 14.5 km/h 94 % 0.0 mm 125 W/m2
10:20 17.3 °C 16.3 °C 1024.6 hPa WNW 3.2 km/h 14.5 km/h 94 % 0.0 mm 156 W/m2
10:25 17.4 °C 16.4 °C 1024.6 hPa West 11.3 km/h 17.7 km/h 94 % 0.0 mm 142 W/m2
10:30 17.4 °C 16.2 °C 1024.6 hPa WNW 9.7 km/h 17.7 km/h 93 % 0.0 mm 165 W/m2
10:35 17.4 °C 16.2 °C 1024.9 hPa NNW 6.4 km/h 17.7 km/h 93 % 0.0 mm 207 W/m2
10:40 17.8 °C 16.8 °C 1024.6 hPa WNW 4.8 km/h 14.5 km/h 94 % 0.0 mm 221 W/m2
10:45 17.8 °C 16.7 °C 1024.6 hPa West 3.2 km/h 11.3 km/h 93 % 0.0 mm 272 W/m2
10:50 18.4 °C 17.1 °C 1024.9 hPa NW 12.9 km/h 12.9 km/h 92 % 0.0 mm 227 W/m2
10:55 18.3 °C 16.8 °C 1024.9 hPa NW 4.8 km/h 14.5 km/h 91 % 0.0 mm 295 W/m2
11:00 18.4 °C 16.9 °C 1024.9 hPa WNW 8.0 km/h 14.5 km/h 91 % 0.0 mm 232 W/m2
11:10 18.7 °C 17.2 °C 1024.9 hPa Calm   12.9 km/h 91 % 0.0 mm 292 W/m2
11:20 18.9 °C 17.0 °C 1024.9 hPa NW 4.8 km/h 12.9 km/h 89 % 0.0 mm 323 W/m2
11:25 18.7 °C 16.7 °C 1024.9 hPa West 3.2 km/h 12.9 km/h 88 % 0.0 mm 311 W/m2
11:30 18.8 °C 16.7 °C 1024.9 hPa WNW 4.8 km/h 11.3 km/h 88 % 0.0 mm 255 W/m2
11:35 18.8 °C 16.8 °C 1024.9 hPa WNW 4.8 km/h 11.3 km/h 88 % 0.0 mm 301 W/m2
11:40 18.9 °C 16.7 °C 1024.9 hPa NW 6.4 km/h 12.9 km/h 87 % 0.0 mm 415 W/m2
11:45 19.3 °C 17.1 °C 1024.9 hPa WNW 1.6 km/h 12.9 km/h 87 % 0.0 mm 418 W/m2
11:55 20.3 °C 17.5 °C 1024.9 hPa WNW 4.8 km/h 9.7 km/h 84 % 0.0 mm 605 W/m2
12:00 20.4 °C 17.4 °C 1024.9 hPa NW 3.2 km/h 14.5 km/h 83 % 0.0 mm 503 W/m2
12:05 20.7 °C 17.7 °C 1024.9 hPa West 4.8 km/h 14.5 km/h 83 % 0.0 mm 529 W/m2
12:10 20.2 °C 17.0 °C 1024.9 hPa WSW 11.3 km/h 16.1 km/h 82 % 0.0 mm 527 W/m2
12:15 19.9 °C 17.5 °C 1024.9 hPa West 8.0 km/h 17.7 km/h 86 % 0.0 mm 515 W/m2
12:20 20.5 °C 17.5 °C 1024.9 hPa SSW 8.0 km/h 17.7 km/h 83 % 0.0 mm 664 W/m2
12:25 20.7 °C 17.9 °C 1024.9 hPa West 9.7 km/h 16.1 km/h 84 % 0.0 mm 659 W/m2
12:30 20.9 °C 17.6 °C 1024.9 hPa West 17.7 km/h 17.7 km/h 81 % 0.0 mm 638 W/m2
12:35 20.8 °C 17.4 °C 1024.9 hPa WNW 6.4 km/h 17.7 km/h 81 % 0.0 mm 598 W/m2
12:40 20.6 °C 17.4 °C 1025.3 hPa West 9.7 km/h 17.7 km/h 82 % 0.0 mm 285 W/m2
12:45 20.3 °C 17.1 °C 1024.9 hPa West 6.4 km/h 17.7 km/h 82 % 0.0 mm 269 W/m2
12:50 20.0 °C 17.0 °C 1024.9 hPa West 11.3 km/h 17.7 km/h 83 % 0.0 mm 297 W/m2
13:00 20.1 °C 17.1 °C 1025.3 hPa West 12.9 km/h 14.5 km/h 83 % 0.0 mm 529 W/m2
13:05 20.2 °C 17.2 °C 1024.9 hPa West 4.8 km/h 16.1 km/h 83 % 0.0 mm 397 W/m2
13:10 19.9 °C 16.8 °C 1025.3 hPa WNW 8.0 km/h 16.1 km/h 82 % 0.0 mm 548 W/m2
13:15 20.3 °C 17.3 °C 1024.9 hPa West 17.7 km/h 17.7 km/h 83 % 0.0 mm 596 W/m2
13:20 20.4 °C 17.3 °C 1025.3 hPa West 12.9 km/h 17.7 km/h 82 % 0.0 mm 684 W/m2
13:25 20.4 °C 17.1 °C 1025.3 hPa West 12.9 km/h 19.3 km/h 81 % 0.0 mm 649 W/m2
13:30 20.7 °C 17.3 °C 1025.3 hPa WSW 11.3 km/h 19.3 km/h 81 % 0.0 mm 503 W/m2
13:35 20.3 °C 16.9 °C 1025.3 hPa West 8.0 km/h 19.3 km/h 81 % 0.0 mm 520 W/m2
13:40 20.4 °C 17.1 °C 1025.3 hPa WSW 11.3 km/h 19.3 km/h 81 % 0.0 mm 555 W/m2
13:45 20.6 °C 17.2 °C 1025.3 hPa WNW 9.7 km/h 24.1 km/h 81 % 0.0 mm 649 W/m2
13:50 20.8 °C 17.2 °C 1025.3 hPa WSW 14.5 km/h 24.1 km/h 80 % 0.0 mm 485 W/m2
13:55 20.5 °C 17.1 °C 1025.3 hPa WSW 8.0 km/h 20.9 km/h 81 % 0.3 mm 550 W/m2
14:00 20.3 °C 17.0 °C 1025.3 hPa West 4.8 km/h 22.5 km/h 81 % 0.3 mm 603 W/m2
14:15 21.1 °C 17.3 °C 1025.3 hPa WSW 16.1 km/h 22.5 km/h 79 % 0.3 mm 664 W/m2
14:20 21.7 °C 17.7 °C 1025.3 hPa WSW 8.0 km/h 22.5 km/h 78 % 0.3 mm 738 W/m2
14:25 22.0 °C 18.2 °C 1025.3 hPa West 8.0 km/h 20.9 km/h 79 % 0.3 mm 671 W/m2
14:30 21.9 °C 17.7 °C 1025.3 hPa West 8.0 km/h 20.9 km/h 77 % 0.3 mm 601 W/m2
14:35 21.7 °C 17.1 °C 1025.3 hPa WNW 4.8 km/h 17.7 km/h 75 % 0.3 mm 689 W/m2
14:40 21.3 °C 17.1 °C 1025.3 hPa West 9.7 km/h 20.9 km/h 77 % 0.3 mm 575 W/m2
14:45 20.9 °C 16.8 °C 1024.9 hPa West 8.0 km/h 20.9 km/h 77 % 0.3 mm 584 W/m2
14:55 20.5 °C 17.3 °C 1025.3 hPa West 9.7 km/h 19.3 km/h 82 % 0.0 mm 503 W/m2
15:00 20.9 °C 17.3 °C 1024.9 hPa West 6.4 km/h 17.7 km/h 80 % 0.0 mm 452 W/m2
15:05 20.7 °C 16.9 °C 1025.3 hPa West 19.3 km/h 24.1 km/h 79 % 0.0 mm 758 W/m2
15:10 20.3 °C 16.8 °C 1025.3 hPa WSW 11.3 km/h 25.7 km/h 80 % 0.0 mm 622 W/m2
15:15 20.3 °C 16.7 °C 1025.3 hPa WNW 4.8 km/h 25.7 km/h 80 % 0.0 mm 563 W/m2
15:20 20.6 °C 17.0 °C 1025.3 hPa West 17.7 km/h 27.4 km/h 80 % 0.0 mm 722 W/m2
15:30 20.4 °C 16.7 °C 1024.9 hPa West 12.9 km/h 29.0 km/h 79 % 0.0 mm 854 W/m2
15:35 20.2 °C 16.5 °C 1024.9 hPa WNW 14.5 km/h 29.0 km/h 79 % 0.0 mm 847 W/m2
15:40 20.4 °C 16.8 °C 1024.9 hPa West 14.5 km/h 29.0 km/h 80 % 0.0 mm 840 W/m2
15:45 20.4 °C 16.8 °C 1025.3 hPa West 9.7 km/h 25.7 km/h 80 % 0.0 mm 833 W/m2
15:50 20.8 °C 17.2 °C 1024.9 hPa WNW 6.4 km/h 27.4 km/h 80 % 0.0 mm 823 W/m2
15:55 20.7 °C 16.9 °C 1025.3 hPa West 16.1 km/h 27.4 km/h 79 % 0.0 mm 853 W/m2
16:00 20.5 °C 16.9 °C 1025.3 hPa WNW 9.7 km/h 24.1 km/h 80 % 0.0 mm 812 W/m2
16:05 20.7 °C 16.7 °C 1024.9 hPa West 14.5 km/h 27.4 km/h 78 % 0.0 mm 773 W/m2
16:10 20.7 °C 17.1 °C 1025.3 hPa WSW 9.7 km/h 27.4 km/h 80 % 0.0 mm 798 W/m2
16:15 21.3 °C 17.5 °C 1024.9 hPa West 6.4 km/h 24.1 km/h 79 % 0.0 mm 793 W/m2
16:25 20.6 °C 17.0 °C 1024.9 hPa West 12.9 km/h 29.0 km/h 80 % 0.0 mm 773 W/m2
16:30 20.8 °C 17.1 °C 1024.9 hPa WSW 1.6 km/h 24.1 km/h 79 % 0.0 mm 766 W/m2
16:35 21.0 °C 16.8 °C 1024.9 hPa WNW 16.1 km/h 20.9 km/h 77 % 0.0 mm 759 W/m2
16:40 20.8 °C 16.9 °C 1024.9 hPa WNW 12.9 km/h 25.7 km/h 78 % 0.0 mm 751 W/m2
16:45 21.3 °C 16.9 °C 1024.9 hPa SW 12.9 km/h 25.7 km/h 76 % 0.0 mm 738 W/m2
16:50 21.7 °C 17.0 °C 1024.9 hPa SW 1.6 km/h 22.5 km/h 75 % 0.0 mm 728 W/m2
16:55 21.5 °C 16.9 °C 1024.9 hPa West 8.0 km/h 24.1 km/h 75 % 0.0 mm 719 W/m2
17:00 21.4 °C 17.2 °C 1024.9 hPa WSW 9.7 km/h 25.7 km/h 77 % 0.0 mm 705 W/m2
17:10 20.7 °C 16.7 °C 1024.9 hPa West 12.9 km/h 27.4 km/h 78 % 0.0 mm 691 W/m2
17:15 20.7 °C 16.9 °C 1024.9 hPa SW 3.2 km/h 27.4 km/h 79 % 0.0 mm 677 W/m2
17:20 21.0 °C 17.2 °C 1024.9 hPa West 6.4 km/h 25.7 km/h 79 % 0.0 mm 668 W/m2
17:25 20.9 °C 17.0 °C 1024.9 hPa West 12.9 km/h 20.9 km/h 78 % 0.0 mm 657 W/m2
17:30 20.6 °C 17.0 °C 1024.9 hPa SW 9.7 km/h 25.7 km/h 80 % 0.0 mm 642 W/m2
17:35 20.2 °C 16.8 °C 1024.9 hPa West 16.1 km/h 25.7 km/h 81 % 0.0 mm 633 W/m2
17:40 20.6 °C 17.0 °C 1024.6 hPa West 1.6 km/h 22.5 km/h 80 % 0.0 mm 622 W/m2
17:45 21.0 °C 17.2 °C 1024.6 hPa WNW 9.7 km/h 27.4 km/h 79 % 0.0 mm 608 W/m2
17:50 20.8 °C 17.5 °C 1024.6 hPa NW 4.8 km/h 27.4 km/h 81 % 0.0 mm 594 W/m2
17:55 20.9 °C 17.1 °C 1024.6 hPa WSW 9.7 km/h 22.5 km/h 79 % 0.0 mm 584 W/m2
18:00 20.1 °C 16.6 °C 1024.6 hPa West 17.7 km/h 22.5 km/h 80 % 0.0 mm 571 W/m2
18:05 19.8 °C 16.9 °C 1024.6 hPa West 8.0 km/h 25.7 km/h 83 % 0.0 mm 559 W/m2
18:10 20.1 °C 16.9 °C 1024.6 hPa WNW 6.4 km/h 25.7 km/h 82 % 0.0 mm 547 W/m2
18:15 20.2 °C 17.0 °C 1024.6 hPa West 14.5 km/h 20.9 km/h 82 % 0.0 mm 533 W/m2
18:20 20.7 °C 16.9 °C 1024.6 hPa West 17.7 km/h 24.1 km/h 79 % 0.0 mm 520 W/m2
18:25 20.3 °C 17.2 °C 1024.6 hPa WNW 16.1 km/h 24.1 km/h 82 % 0.0 mm 506 W/m2
18:30 20.3 °C 16.9 °C 1024.6 hPa West 12.9 km/h 22.5 km/h 81 % 0.0 mm 494 W/m2
18:35 20.3 °C 17.0 °C 1024.6 hPa West 8.0 km/h 20.9 km/h 81 % 0.0 mm 480 W/m2
18:40 20.3 °C 16.8 °C 1024.6 hPa NW 19.3 km/h 24.1 km/h 80 % 0.0 mm 466 W/m2
18:45 20.1 °C 16.7 °C 1024.6 hPa WNW 6.4 km/h 24.1 km/h 81 % 0.0 mm 454 W/m2
18:50 20.4 °C 17.0 °C 1024.6 hPa WSW 9.7 km/h 24.1 km/h 81 % 0.0 mm 438 W/m2
18:55 20.1 °C 16.6 °C 1024.6 hPa NW 9.7 km/h 25.7 km/h 80 % 0.0 mm 424 W/m2
19:00 19.9 °C 16.4 °C 1024.6 hPa WNW 14.5 km/h 25.7 km/h 80 % 0.0 mm 410 W/m2
19:05 19.9 °C 16.5 °C 1024.6 hPa West 12.9 km/h 25.7 km/h 81 % 0.0 mm 396 W/m2
19:10 19.8 °C 16.4 °C 1024.6 hPa West 14.5 km/h 24.1 km/h 81 % 0.0 mm 381 W/m2
19:15 19.7 °C 16.3 °C 1024.6 hPa West 16.1 km/h 24.1 km/h 81 % 0.0 mm 367 W/m2
19:20 19.5 °C 16.2 °C 1024.6 hPa NNW 9.7 km/h 24.1 km/h 81 % 0.0 mm 353 W/m2
19:25 19.7 °C 16.3 °C 1024.6 hPa WNW 14.5 km/h 24.1 km/h 81 % 0.0 mm 338 W/m2
19:30 19.8 °C 16.2 °C 1024.6 hPa NNW 11.3 km/h 19.3 km/h 80 % 0.0 mm 325 W/m2
19:35 19.7 °C 16.4 °C 1024.6 hPa West 9.7 km/h 19.3 km/h 81 % 0.0 mm 311 W/m2
19:40 19.4 °C 16.2 °C 1024.6 hPa WNW 8.0 km/h 24.1 km/h 82 % 0.0 mm 287 W/m2
19:45 19.4 °C 16.2 °C 1024.6 hPa WNW 4.8 km/h 24.1 km/h 82 % 0.0 mm 257 W/m2
19:50 19.4 °C 16.3 °C 1024.6 hPa WNW 16.1 km/h 19.3 km/h 82 % 0.0 mm 232 W/m2
19:55 19.3 °C 16.4 °C 1024.6 hPa WNW 6.4 km/h 20.9 km/h 83 % 0.0 mm 213 W/m2
20:00 19.2 °C 16.3 °C 1024.6 hPa West 11.3 km/h 22.5 km/h 83 % 0.0 mm 197 W/m2
20:05 19.2 °C 16.3 °C 1024.6 hPa WSW 4.8 km/h 22.5 km/h 83 % 0.0 mm 188 W/m2
20:10 19.1 °C 15.9 °C 1024.6 hPa WNW 4.8 km/h 19.3 km/h 82 % 0.0 mm 183 W/m2
20:15 18.9 °C 15.8 °C 1024.6 hPa NW 8.0 km/h 20.9 km/h 82 % 0.0 mm 176 W/m2
20:20 18.8 °C 15.5 °C 1024.6 hPa West 8.0 km/h 20.9 km/h 81 % 0.0 mm 155 W/m2
20:25 18.8 °C 15.6 °C 1024.6 hPa West 8.0 km/h 20.9 km/h 82 % 0.0 mm 134 W/m2
20:30 18.8 °C 15.7 °C 1024.6 hPa West 9.7 km/h 22.5 km/h 82 % 0.0 mm 120 W/m2
20:35 18.8 °C 15.6 °C 1024.6 hPa West 3.2 km/h 22.5 km/h 82 % 0.0 mm 107 W/m2
20:40 18.7 °C 15.5 °C 1024.6 hPa West 9.7 km/h 20.9 km/h 82 % 0.0 mm 67 W/m2
20:45 18.5 °C 15.6 °C 1024.6 hPa West 6.4 km/h 20.9 km/h 83 % 0.0 mm 30 W/m2
20:50 18.3 °C 15.3 °C 1024.6 hPa WSW 9.7 km/h 16.1 km/h 83 % 0.0 mm 30 W/m2
20:55 18.1 °C 15.3 °C 1024.6 hPa WSW 3.2 km/h 17.7 km/h 84 % 0.0 mm 28 W/m2
21:00 17.9 °C 15.4 °C 1024.6 hPa West 6.4 km/h 22.5 km/h 85 % 0.0 mm 25 W/m2
21:05 17.8 °C 15.4 °C 1024.9 hPa West 19.3 km/h 22.5 km/h 86 % 0.0 mm 23 W/m2
21:10 17.7 °C 15.3 °C 1024.9 hPa WNW 6.4 km/h 25.7 km/h 86 % 0.0 mm 21 W/m2
21:15 17.5 °C 15.1 °C 1024.6 hPa West 8.0 km/h 25.7 km/h 86 % 0.0 mm 19 W/m2
21:20 17.4 °C 15.0 °C 1024.6 hPa NNW 19.3 km/h 20.9 km/h 86 % 0.0 mm 19 W/m2
21:25 17.3 °C 15.0 °C 1024.9 hPa WNW 6.4 km/h 20.9 km/h 86 % 0.0 mm 18 W/m2
21:30 17.2 °C 14.9 °C 1024.9 hPa WNW 8.0 km/h 19.3 km/h 86 % 0.0 mm 14 W/m2
21:35 17.1 °C 14.9 °C 1024.9 hPa West 11.3 km/h 16.1 km/h 87 % 0.0 mm 12 W/m2
21:40 17.1 °C 14.9 °C 1024.9 hPa NW 8.0 km/h 16.1 km/h 87 % 0.0 mm 12 W/m2
21:45 16.8 °C 14.7 °C 1024.9 hPa WNW 4.8 km/h 16.1 km/h 87 % 0.0 mm 11 W/m2
21:50 16.7 °C 14.5 °C 1025.3 hPa WNW 4.8 km/h 19.3 km/h 87 % 0.0 mm 9 W/m2
21:55 16.7 °C 14.5 °C 1025.3 hPa NW 8.0 km/h 19.3 km/h 87 % 0.0 mm 7 W/m2
22:00 16.6 °C 14.4 °C 1024.9 hPa NW 16.1 km/h 22.5 km/h 87 % 0.0 mm 5 W/m2
22:05 16.6 °C 14.4 °C 1025.3 hPa WNW 9.7 km/h 22.5 km/h 87 % 0.0 mm 0 W/m2
22:10 16.4 °C 14.5 °C 1025.3 hPa NW 1.6 km/h 22.5 km/h 88 % 0.0 mm 0 W/m2
22:15 16.3 °C 14.3 °C 1025.3 hPa West 6.4 km/h 17.7 km/h 88 % 0.0 mm 0 W/m2
22:20 16.3 °C 14.5 °C 1025.3 hPa NW 4.8 km/h 17.7 km/h 89 % 0.0 mm 0 W/m2
22:25 16.2 °C 14.4 °C 1025.3 hPa West 4.8 km/h 16.1 km/h 89 % 0.0 mm 0 W/m2
22:30 16.2 °C 14.6 °C 1025.3 hPa NW 9.7 km/h 16.1 km/h 90 % 0.0 mm 0 W/m2
22:35 16.2 °C 14.5 °C 1025.3 hPa West 8.0 km/h 17.7 km/h 90 % 0.0 mm 0 W/m2
22:40 16.1 °C 14.5 °C 1025.3 hPa WNW 4.8 km/h 17.7 km/h 90 % 0.0 mm 0 W/m2
22:45 16.1 °C 14.4 °C 1025.3 hPa West 4.8 km/h 17.7 km/h 90 % 0.0 mm 0 W/m2
22:50 15.9 °C 14.3 °C 1025.6 hPa NW 4.8 km/h 17.7 km/h 90 % 0.0 mm 0 W/m2
22:55 15.8 °C 14.2 °C 1025.6 hPa NW 6.4 km/h 17.7 km/h 90 % 0.0 mm 0 W/m2
23:00 15.8 °C 14.2 °C 1025.6 hPa West 4.8 km/h 16.1 km/h 90 % 0.0 mm 0 W/m2
23:05 15.8 °C 14.2 °C 1025.6 hPa WNW 6.4 km/h 16.1 km/h 90 % 0.0 mm 0 W/m2
23:10 15.8 °C 14.2 °C 1025.6 hPa NW 9.7 km/h 16.1 km/h 90 % 0.0 mm 0 W/m2
23:15 15.8 °C 14.1 °C 1025.6 hPa NW 9.7 km/h 17.7 km/h 90 % 0.0 mm 0 W/m2
23:20 15.7 °C 14.1 °C 1025.6 hPa West 9.7 km/h 17.7 km/h 90 % 0.0 mm 0 W/m2
23:25 15.7 °C 14.1 °C 1025.6 hPa NW 20.9 km/h 20.9 km/h 90 % 0.0 mm 0 W/m2
23:30 15.8 °C 14.2 °C 1025.6 hPa West 6.4 km/h 20.9 km/h 90 % 0.0 mm 0 W/m2
23:35 15.9 °C 14.3 °C 1025.6 hPa West 1.6 km/h 20.9 km/h 90 % 0.0 mm 0 W/m2
23:40 16.1 °C 14.3 °C 1025.6 hPa WNW 4.8 km/h 17.7 km/h 89 % 0.0 mm 0 W/m2
23:45 16.2 °C 14.4 °C 1025.6 hPa WNW 6.4 km/h 19.3 km/h 89 % 0.0 mm 0 W/m2
23:50 16.2 °C 14.4 °C 1025.6 hPa WNW 8.0 km/h 19.3 km/h 89 % 0.0 mm 0 W/m2
23:55 16.1 °C 13.9 °C 1025.6 hPa NW 11.3 km/h 19.3 km/h 87 % 0.0 mm 0 W/m2
Avec l'autorisation de Weather Underground - 1.5 mb